Theta_e
288 288 287 287 287 287 287 287 287 286 286 286 285 285 285 284 284 283 283 283 282 281 282 281 281 281 279 278 279 279 278 278 275 277 279 279 279 279 279 279 280 279 278
288 287 287 287 286 286 285 285 286 285 285 284 284 283 283 283 282 282 281 282 281 280 281 280 279 282 279 279 278 278 277 278 277 275 277 277 278 279 278 277 278 279 278
287 286 286 286 286 285 284 285 285 284 283 282 282 282 281 281 281 281 281 281 281 280 280 279 279 279 278 277 277 276 277 278 277 276 275 277 277 278 277 277 276 277 278
287 286 285 285 285 284 284 283 283 283 282 281 281 281 280 280 280 280 280 280 279 280 280 280 279 278 277 276 277 277 277 276 276 275 275 275 277 277 276 274 273 275 275
286 285 285 284 284 284 283 282 281 281 281 280 280 280 279 280 280 279 279 279 279 279 279 279 279 279 280 279 278 277 276 275 275 275 275 275 274 274 273 273 272 274 274
286 285 284 283 282 282 281 281 280 280 279 279 278 278 277 279 282 281 281 279 278 278 277 277 277 279 278 280 280 281 279 276 275 275 275 274 274 273 273 272 272 271 268
284 284 282 282 281 281 281 280 280 279 278 277 277 277 277 278 282 282 281 278 278 277 277 277 277 278 278 277 278 279 279 279 280 277 274 273 273 273 273 273 272 271 269
283 282 282 281 280 280 280 279 279 278 278 277 277 277 277 278 282 282 281 278 277 277 277 277 276 276 276 277 277 276 276 277 277 277 276 274 274 275 276 273 271 270 269
282 282 281 280 280 279 279 278 278 278 278 278 279 278 277 277 281 281 280 277 276 276 277 277 276 276 278 280 277 275 275 276 278 278 278 278 278 277 275 271 268 266 264
281 281 281 280 280 279 278 278 278 279 279 279 279 278 277 276 280 281 280 277 276 276 277 277 279 277 279 279 276 275 273 273 273 273 272 271 271 270 273 270 268 265 264
282 281 280 280 279 279 278 277 276 276 277 275 276 276 276 276 276 280 280 277 276 275 275 275 277 279 279 279 279 275 273 275 271 266 266 266 267 267 268 269 269 266 263
281 280 279 277 278 278 274 273 273 272 272 272 272 273 275 276 277 278 279 279 278 276 274 275 275 278 279 279 277 277 276 273 266 264 264 264 264 265 266 266 266 266 266
278 275 273 274 276 275 273 273 271 272 272 273 274 272 273 276 275 278 279 278 278 275 275 276 278 278 277 274 274 274 270 265 263 262 262 262 264 265 265 264 264 264 264
274 273 272 272 272 272 276 275 274 273 272 273 272 273 270 272 272 272 273 272 275 275 276 273 274 275 274 273 267 268 266 265 263 262 262 263 263 261 261 262 260 260 258
272 273 274 274 273 273 274 274 275 275 275 272 273 272 269 269 272 275 273 270 270 273 270 264 262 262 261 260 260 260 261 261 260 261 260 259 259 259 259 259 258 257 255
274 274 274 274 273 273 273 272 280 281 281 281 282 277 274 277 278 279 279 278 278 278 263 259 259 260 259 259 257 258 258 259 258 258 257 257 257 257 257 257 256 255 255
274 274 272 273 273 271 270 271 272 273 282 282 282 281 280 279 279 280 279 277 277 273 259 258 258 258 258 259 259 258 259 259 256 256 256 256 256 255 254 254 255 255 254
268 271 271 272 273 271 272 271 270 269 270 270 276 279 279 279 278 277 276 273 261 262 256 254 253 254 255 256 255 254 254 254 252 254 254 251 253 253 253 253 254 253 253
270 271 271 270 268 270 268 267 268 265 267 264 262 268 267 275 274 274 273 257 255 254 253 252 252 252 254 252 251 250 250 252 251 252 252 251 251 250 253 253 253 253 253
268 269 270 270 269 267 266 266 266 266 264 262 261 261 256 258 257 256 256 255 253 252 252 251 251 250 250 249 248 247 248 249 250 250 251 250 251 252 253 253 253 252 252
271 270 269 267 266 268 267 268 267 265 263 262 263 262 267 257 257 255 254 253 252 251 251 250 250 249 247 247 246 245 247 249 249 249 251 251 252 252 253 253 252 252 252
270 269 266 267 266 267 267 266 265 263 263 262 259 260 273 261 256 254 253 252 251 250 250 250 249 248 248 247 246 245 247 248 250 250 249 251 252 252 252 252 251 252 253
269 268 266 263 266 265 263 262 264 264 262 260 260 258 254 254 253 252 252 250 249 249 249 249 247 248 246 246 246 248 248 250 251 249 250 251 251 250 250 250 251 251 252
270 268 267 267 265 265 264 263 263 262 261 261 260 258 256 253 253 252 250 249 249 249 249 247 246 248 247 247 247 248 249 251 251 251 248 250 250 250 250 250 250 251 252
269 269 268 267 266 265 264 263 263 262 259 260 259 256 253 252 251 250 249 250 250 249 248 247 247 247 248 248 248 248 250 253 252 253 252 252 251 251 251 251 251 252 252
270 270 269 267 266 265 264 263 262 261 261 259 257 256 256 254 251 250 250 252 251 248 248 248 248 249 248 249 249 251 255 258 258 257 255 253 251 252 253 252 252 253 254
Wind_Speed
8 6 7 7 6 6 5 5 5 5 5 5 4 4 3 2 2 3 3 0 2 3 3 3 5 4 3 3 3 3 3 4 8 9 6 6 10 9 9 5 7 7 5
6 6 7 6 6 5 5 5 5 5 4 4 3 3 2 0 2 2 2 2 3 4 5 5 5 4 5 5 3 5 3 5 7 12 9 9 10 10 7 8 8 10 7
7 7 6 6 6 6 5 5 4 4 4 3 2 2 1 1 2 3 2 4 4 4 5 5 6 5 4 3 4 4 5 6 6 7 10 9 9 6 7 9 10 11 8
7 7 6 6 6 6 5 5 4 4 4 3 3 2 1 2 3 4 3 4 5 5 5 4 5 5 3 3 6 5 6 6 7 8 9 10 8 8 6 9 11 9 10
7 6 6 6 6 6 5 5 4 3 3 2 2 2 3 3 4 2 3 4 5 6 5 5 4 4 6 7 4 5 6 5 7 9 9 9 9 8 9 9 12 12 11
7 6 7 6 6 6 5 5 4 4 4 3 4 5 5 3 6 5 6 4 4 5 5 5 5 6 5 9 13 14 13 10 11 9 8 8 10 10 9 11 12 11 14
7 6 7 6 6 6 5 5 5 5 4 6 6 5 5 5 9 7 8 4 5 5 7 5 5 3 5 4 9 14 14 17 20 12 11 10 11 10 13 13 11 12 13
7 7 6 6 6 5 5 6 5 5 6 5 5 5 5 5 9 9 9 5 6 6 6 6 5 5 5 7 8 8 9 9 8 8 9 10 11 13 12 12 14 15 12
7 7 7 7 6 6 6 6 6 4 4 4 4 5 6 5 10 11 9 5 6 7 5 5 5 5 10 15 9 9 10 9 10 18 22 23 24 25 20 11 9 10 14
8 7 6 7 7 7 6 6 4 3 4 3 5 6 5 5 11 12 10 4 6 5 4 5 8 7 13 14 9 8 8 10 11 11 10 12 14 12 19 9 8 9 10
6 6 7 7 7 6 5 4 4 4 4 4 5 5 5 6 7 12 12 5 4 5 5 5 5 12 14 16 16 6 10 15 11 6 8 7 7 8 7 6 7 7 9
7 7 6 5 5 4 5 3 3 3 4 5 4 5 5 6 9 10 12 11 9 5 5 5 5 15 17 16 14 19 21 16 6 6 7 8 8 8 7 8 10 9 9
6 4 4 5 4 5 5 5 3 5 5 4 5 5 4 4 3 9 10 10 11 7 4 9 16 15 14 10 13 16 10 3 5 6 7 8 7 8 11 10 9 10 11
5 5 4 5 5 5 4 5 5 5 5 5 5 6 2 2 3 3 3 3 7 6 9 3 6 10 12 11 4 6 3 4 5 7 7 8 7 7 8 7 8 9 10
3 3 5 5 6 5 6 6 7 5 7 4 5 4 3 4 5 8 6 3 4 7 1 1 2 2 2 3 3 3 3 3 4 5 6 7 8 8 8 8 7 8 9
5 4 5 4 4 4 4 4 14 15 14 15 16 9 3 8 9 10 10 9 11 12 3 1 2 2 2 2 3 3 2 3 3 4 5 6 8 8 9 8 8 7 9
7 4 4 5 4 4 3 4 5 4 15 16 16 16 15 12 14 9 9 9 11 6 2 1 1 2 2 3 4 3 6 5 3 5 6 7 7 7 8 8 8 8 9
4 6 4 4 4 4 4 4 4 4 4 3 10 11 10 11 8 7 8 6 3 3 2 2 3 3 3 3 3 2 3 4 3 5 6 4 6 7 8 8 8 9 9
5 4 4 3 3 4 3 3 4 3 4 3 2 2 3 4 5 6 6 3 3 2 1 1 2 3 3 3 3 3 3 4 5 5 5 5 6 4 9 8 9 12 12
3 6 6 4 4 3 3 3 3 4 3 2 2 4 2 4 1 2 2 3 2 3 2 3 3 3 3 3 3 3 4 5 5 5 6 5 6 6 8 9 9 9 10
4 4 6 4 4 4 4 5 4 4 3 3 4 4 10 4 4 3 3 3 3 3 3 3 3 3 3 3 3 3 4 5 5 6 6 7 6 7 8 8 9 9 10
4 4 4 5 3 4 4 3 4 4 4 4 3 3 10 4 3 3 3 3 4 4 3 3 3 3 4 3 4 3 5 7 7 6 7 7 7 7 8 9 9 9 10
4 5 4 3 4 4 4 4 4 4 4 4 4 4 2 3 3 4 4 4 3 3 2 3 3 4 3 4 4 5 6 8 8 5 8 8 8 8 7 9 9 10 10
5 5 5 4 4 4 4 5 4 5 4 4 4 4 4 3 4 4 3 3 3 3 2 2 3 5 5 5 5 5 7 9 7 8 8 9 10 10 8 10 10 13 12
5 5 5 5 6 6 5 5 5 5 4 5 4 4 3 3 3 3 4 3 3 3 3 3 4 6 9 10 9 10 12 16 12 12 8 11 14 15 12 10 12 12 14
5 5 5 5 5 5 6 5 5 5 6 5 4 5 5 5 4 4 3 3 2 2 4 4 5 9 9 8 11 12 14 15 14 15 12 11 11 12 11 13 16 11 14
Wind_Direction
100 110 112 107 103 108 110 115 115 104 101 104 107 105 101 94 64 30 22 240 344 316 312 306 295 287 278 282 281 273 273 275 286 295 293 310 309 302 308 293 314 305 293
125 126 119 114 115 116 121 121 117 111 104 122 126 137 142 95 40 3 315 317 294 302 292 293 294 305 309 294 285 286 278 280 289 299 312 313 302 304 306 321 319 311 310
139 135 136 134 134 135 135 130 130 139 140 148 159 188 187 43 311 274 285 300 295 283 281 295 292 299 299 309 337 324 312 310 306 313 306 302 301 301 312 314 315 308 299
149 149 145 146 147 148 142 146 153 166 174 184 198 204 223 258 276 270 290 296 303 300 295 290 295 296 312 329 316 298 306 304 301 298 296 299 305 311 307 317 312 303 307
159 150 150 149 148 135 148 166 170 174 206 205 229 238 237 234 238 191 305 309 308 307 305 296 289 298 290 293 292 285 279 295 294 293 290 301 305 315 319 316 307 306 306
160 154 150 151 152 164 173 180 185 204 217 219 234 234 240 246 259 265 285 289 301 290 284 287 296 292 284 298 302 306 309 305 305 302 296 303 313 311 309 307 300 307 310
153 160 160 162 168 184 187 189 204 214 220 224 231 232 242 250 261 259 280 275 273 276 282 277 278 277 295 291 303 303 302 299 303 312 311 309 309 311 303 300 309 305 300
166 168 169 172 183 186 189 204 211 210 216 219 232 243 244 237 260 256 259 264 267 268 265 272 281 297 301 306 287 297 297 296 297 303 311 310 300 300 308 315 313 307 299
174 183 181 176 183 191 201 207 215 214 222 232 225 235 237 242 252 257 253 257 270 268 270 276 275 272 286 297 302 301 297 299 313 309 306 308 313 315 313 310 305 310 305
185 192 177 180 191 197 199 208 204 191 217 218 230 229 231 244 251 257 254 243 271 286 290 286 287 287 294 308 304 304 311 312 305 312 321 314 313 302 309 300 296 300 306
171 175 186 190 191 193 195 178 166 191 206 224 232 236 239 236 241 257 263 257 262 283 294 298 292 299 302 299 312 328 305 314 339 334 316 310 311 305 305 307 317 312 301
174 185 189 176 182 183 167 184 177 175 209 223 233 256 236 232 234 254 262 261 262 266 273 280 284 291 296 316 326 320 318 331 332 319 315 313 313 311 312 315 305 294 285
168 174 170 179 183 173 177 197 185 200 216 232 228 238 241 235 208 245 261 264 273 279 269 272 292 321 323 326 314 317 337 341 305 308 307 304 304 316 313 309 305 302 296
174 186 179 174 200 205 202 196 205 203 209 218 224 243 233 224 197 194 193 237 267 274 280 302 294 310 314 312 340 316 315 308 304 306 305 306 313 312 307 313 313 315 309
170 178 197 202 204 204 215 206 215 214 198 202 222 204 197 230 220 207 190 213 232 252 262 26 343 330 315 320 323 312 308 305 307 302 307 312 309 306 310 314 310 309 298
200 201 205 199 203 207 212 246 239 241 238 248 252 229 211 237 248 241 257 271 282 290 80 77 293 302 310 305 303 291 282 294 288 310 306 300 305 309 310 310 304 298 300
212 197 194 199 203 198 204 218 259 281 249 249 246 241 248 240 244 259 264 274 284 309 129 252 270 279 279 296 285 282 305 310 317 307 302 304 306 305 305 302 302 300 299
181 202 197 205 203 207 209 209 198 204 226 246 249 250 263 265 265 264 264 298 4 356 137 188 240 254 261 267 276 282 296 300 291 292 291 283 289 284 297 295 296 297 299
193 208 202 214 211 204 200 204 204 201 214 217 48 56 12 250 240 242 248 144 179 212 233 265 234 246 258 259 270 281 278 283 280 287 283 269 273 270 291 287 289 295 294
201 203 199 196 200 198 197 201 214 214 210 192 187 206 140 74 182 232 184 163 172 210 220 226 248 250 253 255 267 268 283 286 282 276 281 276 280 276 282 287 289 290 291
198 196 190 198 201 197 195 207 205 198 193 197 208 187 176 164 200 201 198 190 194 213 220 221 250 257 264 262 265 273 270 276 275 274 279 280 277 280 279 280 280 279 279
186 179 175 203 197 202 208 200 196 190 192 191 200 205 225 158 178 187 190 205 211 198 193 192 241 240 237 236 244 250 266 273 279 270 273 278 278 281 283 281 282 280 280
181 187 193 190 190 192 197 192 189 190 194 188 168 172 171 169 182 192 201 209 191 202 219 203 231 271 259 256 240 233 248 264 264 254 273 282 280 275 271 275 277 280 280
183 190 196 194 187 200 202 202 198 191 186 176 173 179 180 187 193 204 202 196 191 216 221 228 230 245 264 264 253 247 249 259 259 262 242 263 273 277 268 266 267 270 274
184 191 194 192 197 203 201 201 190 186 182 181 183 175 179 177 181 193 202 201 201 206 244 250 247 253 262 265 265 262 262 270 263 261 261 257 259 263 263 265 268 272 270
197 196 195 194 201 194 201 197 191 180 190 189 178 182 178 180 189 191 197 195 213 239 260 259 262 266 272 272 270 271 277 278 274 259 242 243 249 257 255 256 263 261 269